Changshagaoxin
1 43669U 18083H 22321.87379720 .00011150 00000-0 45459-3 0 9999
2 43669 97.4039 344.5016 0009886 142.2889 342.6042 15.24572216224655
Ten-Koh
1 43677U 18084G 22321.79669509 .00001641 00000-0 16909-3 0 9999
2 43677 97.9855 93.4799 0016661 123.8189 236.4617 14.91583336220539
PO-101
1 43678U 18084H 22321.86433779 .00001094 00000-0 11230-3 0 9990
2 43678 97.9922 97.1613 0010712 134.2330 225.9778 14.92487495220739
IRVINE 01
1 43693U 18088D 22321.41113119 .00087325 00000-0 12418-2 0 9994
2 43693 85.0248 206.1193 0001512 213.0930 147.0236 15.56066860223826
QO-100
1 43700U 18090A 22321.81569410 .00000160 00000-0 00000-0 0 9993
2 43700 0.0155 279.6949 0001377 344.2284 112.4330 1.00274137 14563
Reaktor Hello World
1 43743U 18096AA 22321.64247558 .00016870 00000-0 44345-3 0 9991
2 43743 97.3419 41.1754 0012761 225.1063 134.9147 15.38580012221472
MinXSS-2
1 43758U 18099A 22321.83814183 .00002590 00000-0 22157-3 0 9996
2 43758 97.6071 26.0041 0015399 109.4068 250.8821 14.98371845216068
AO-95
1 43770U 18099N 22321.14565984 .00002204 00000-0 19461-3 0 9992
2 43770 97.6048 23.4577 0015256 119.7663 240.5079 14.97288998215850
RANGE-B
1 43772U 18099Q 22321.13285978 .00004135 00000-0 35266-3 0 9991
2 43772 97.6158 25.5099 0015241 108.5807 251.7073 14.98173183215887
RANGE-A
1 43773U 18099R 22321.18554073 .00002480 00000-0 22200-3 0 9997
2 43773 97.5956 22.1133 0014753 109.6915 250.5901 14.96646630215836
MOVE-II
1 43780U 18099Y 22321.41781857 .00004181 00000-0 34754-3 0 9990
2 43780 97.6105 25.2777 0013744 111.2738 248.9954 14.99179976215960
SNUSat 2
1 43782U 18099AA 22321.84649642 .00002311 00000-0 20343-3 0 9996
2 43782 97.6034 24.6397 0013471 106.3444 253.9260 14.97387225215984
SnugLite
1 43784U 18099AC 22321.85890264 .00003143 00000-0 27256-3 0 9991
2 43784 97.6001 24.2752 0016166 112.3412 247.9526 14.97689872216013
ITASat 1
1 43786U 18099AE 22321.79715892 .00002807 00000-0 24622-3 0 9999
2 43786 97.6069 25.0854 0016346 112.0802 248.2158 14.97318432215993
EAGLET 1
1 43790U 18099AJ 22321.14561808 .00001840 00000-0 16309-3 0 9998
2 43790 97.6070 24.9957 0014544 115.8404 244.4320 14.97358349215630
ESEO
1 43792U 18099AL 22321.41528579 .00001009 00000-0 93476-4 0 9996
2 43792 97.6013 24.2307 0014466 113.4891 246.7852 14.96561229215703
CSIM
1 43793U 18099AM 22321.78998714 .00004163 00000-0 34047-3 0 9991
2 43793 97.6075 26.6990 0014828 111.0362 249.2449 14.99802547215855
Astrocast 0.1
1 43798U 18099AS 22321.82191541 .00002906 00000-0 24542-3 0 9996
2 43798 97.6094 26.3996 0013255 90.7981 269.4760 14.98809531216071
JO-97
1 43803U 18099AX 22321.42217880 .00002164 00000-0 18768-3 0 9993
2 43803 97.6034 24.5353 0015528 111.1860 249.1024 14.98010868215960
Suomi 100
1 43804U 18099AY 22321.85289711 .00002703 00000-0 23414-3 0 9996
2 43804 97.6017 24.8404 0016013 111.9234 248.3693 14.97853064216039
Al Farabi 2
1 43805U 18099AZ 22321.83784047 .00003568 00000-0 30098-3 0 9993
2 43805 97.6025 25.5105 0014840 110.3277 249.9507 14.98696394216067
CHOMPTT
1 43855U 18104G 22321.41565399 .00009720 00000-0 32803-3 0 9998
2 43855 85.0312 308.9805 0015961 40.3536 319.8891 15.30411649218095
ISAT
1 43879U 18111D 22321.65330465 .00002659 00000-0 22367-3 0 9990
2 43879 97.6517 224.4692 0011971 161.6513 198.5144 14.99062725212618
UWE-4
1 43880U 18111E 22321.64299180 .00002231 00000-0 18797-3 0 9997
2 43880 97.6580 225.2553 0011043 155.8128 204.3616 14.99171359212649
Sparrow
1 43881U 18111F 22321.64203647 .00002793 00000-0 23269-3 0 9994
2 43881 97.6602 225.5482 0011067 151.9120 208.2702 14.99402744212659
Lume 1
1 43908U 18111AJ 22321.63159348 .00011976 00000-0 36590-3 0 9995
2 43908 97.1678 204.7192 0014644 243.7634 116.2105 15.33923927216848
FO-99
1 43937U 19003F 22321.61341061 .00014739 00000-0 43255-3 0 9997
2 43937 97.1161 349.2671 0017237 330.9669 29.0615 15.35103582213430
MYSat 1
1 44045U 18092F 22321.88183830 .00240016 00000-0 10106-2 0 9999
2 44045 51.6214 16.2833 0011971 358.2443 1.8516 15.84160531211884
AstroCast 0.2
1 44083U 19018F 22321.62168543 .00011568 00000-0 38862-3 0 9994
2 44083 97.3029 17.7634 0007375 304.8388 55.2159 15.30971306201886
AISTechSat 3
1 44103U 19018AB 22321.64850552 .00009790 00000-0 33272-3 0 9991
2 44103 97.2893 17.9664 0009975 317.1201 42.9262 15.30620338202055
AISat 1
1 44104U 19018AC 22321.20825812 .00008278 00000-0 21428-3 0 9995
2 44104 97.3877 45.1030 0047741 306.2632 53.4206 15.38146202203056
Prox-1
1 44339U 19036A 22321.28975860 .00003943 00000-0 82825-3 0 9994
2 44339 24.0012 307.9616 0011161 94.5275 265.6492 14.56149732180643
Oculus-ASR
1 44348U 19036K 22321.86020021 .00075246 -53375-5 45134-3 0 9994
2 44348 28.4955 198.9158 0166534 258.3907 99.7961 15.59085926188309
NO-104
1 44354U 19036R 22320.94863362 .00088402 -47538-5 47609-3 0 9993
2 44354 28.5201 186.2961 0154223 274.9457 83.3559 15.63342203188355
Move-IIb
1 44398U 19038N 22321.84284709 .00019536 00000-0 82645-3 0 9993
2 44398 97.6459 293.1288 0018667 324.2382 35.7601 15.23085631186343
SONATE
1 44400U 19038Q 22321.79034913 .00006827 00000-0 35358-3 0 9999
2 44400 97.6589 291.2871 0021858 329.4914 30.5044 15.16333222186159
BeeSat 9
1 44412U 19038AC 22321.44430764 .00009861 00000-0 46155-3 0 9996
2 44412 97.6545 292.2646 0017866 332.6882 27.3411 15.19808476185904
JAISAT-1
1 44419U 19038F 22321.44850546 .00009611 00000-0 44430-3 0 9994
2 44419 97.6550 293.2235 0016721 329.8407 30.1864 15.20264559186277
LightSail-2
1 44420U 19036AC 22320.00463817 .06035209 00000-0 44554-1 0 9999
2 44420 23.9883 192.8403 0026944 276.6165 212.0548 15.67402264179909
Taurus 1
1 44530U 19059C 22321.82379351 .00003025 00000-0 82936-3 0 9999
2 44530 98.5516 61.9016 0013004 20.6658 339.4997 14.47797968168034
Duchifat 3
1 44854U 19089C 22321.27654735 .00005750 00000-0 43209-3 0 9999
2 44854 36.9642 273.6506 0007483 13.0173 132.7310 15.02337984160919
OPS-SAT
1 44878U 19092F 22321.77838481 .00010597 00000-0 44955-3 0 9990
2 44878 97.4783 144.7284 0011890 159.3705 200.8014 15.23227978161504
TO-108
1 44881U 19093C 22321.79537550 .00000780 00000-0 10491-3 0 9991
2 44881 97.8822 38.7290 0016061 50.7081 309.5542 14.81934398157480
FloripaSat 1
1 44885U 19093G 22321.80193602 .00002603 00000-0 32002-3 0 9991
2 44885 97.8874 40.4710 0015307 55.0958 305.1660 14.83795723157584
RS-44
1 44909U 19096E 22321.50586348 .00000026 00000-0 65183-4 0 9995
2 44909 82.5177 128.6103 0216762 322.0898 36.5107 12.79716633135089
BY70-2
1 45857U 20042B 22321.82271592 .00009716 00000-0 12262-2 0 9991
2 45857 97.9447 37.3226 0008995 341.1655 18.9143 14.82103563128156
UPMSat 2
1 46276U 20061E 22321.62472351 .00004266 00000-0 20404-3 0 9995
2 46276 97.3761 28.9306 0002005 48.3621 311.7785 15.19516174122129
AmicalSat
1 46287U 20061R 22320.74963153 .00005868 00000-0 32267-3 0 9993
2 46287 97.4305 26.8650 0003791 104.0962 256.0691 15.14445084121500
SALSAT
1 46495U 20068K 22321.76462324 .00002334 00000-0 16704-3 0 9991
2 46495 97.7456 263.2859 0018122 114.5728 245.7389 15.05315261117247
BY70-3
1 46839U 20079N 22321.83412358 .00041079 00000-0 70232-3 0 9990
2 46839 97.1811 32.5464 0005382 133.0947 10.5791 15.51156057113934
